EW6057 Weather Reports


Display with metric or nautical units.
time (UTC)temp
F
wind
direction
speed
MPH
gust
MPH
rain 1hr
in
rain 24hr
in
rain mn
in
humidity
%
barometer
mb
20260901014536 81 79 0.0 0.0 0.00 0.00 0.00 56 1009.7
20260901013018 82 81 0.0 0.0 0.00 0.00 0.00 55 1009.6
20260901011518 83 70 0.0 0.0 0.00 0.00 0.00 53 1009.5
20260901010059 83 70 0.0 0.0 0.00 0.00 0.00 52 1009.4
20260901004607 84 68 0.0 0.0 0.00 0.00 0.00 50 1009.4
20260901003048 85 77 0.0 0.0 0.00 0.00 0.00 50 1009.5
20260901001547 86 76 0.0 0.0 0.00 0.00 0.00 46 1009.4
20260901000104 86 94 0.0 0.0 0.00 0.00 0.00 45 1009.5
20260831234552 87 70 0.0 0.0 0.00 0.00 0.00 44 1009.6
20260831233045 87 89 0.0 0.0 0.00 0.00 0.00 43 1009.5
20260831231550 87 98 0.0 0.0 0.00 0.00 0.00 43 1009.6
20260831230045 87 103 0.0 0.0 0.00 0.00 0.00 42 1009.7
20260831224544 87 131 0.0 0.0 0.00 0.00 0.00 42 1009.7
20260831223052 87 143 0.0 0.0 0.00 0.00 0.00 43 1009.8
20260831221540 87 65 0.0 0.0 0.00 0.00 0.00 44 1009.8
20260831220023 87 293 0.0 0.0 0.00 0.00 0.00 43 1009.9
20260831214523 87 319 0.0 0.0 0.00 0.00 0.00 42 1009.8
20260831213005 87 169 0.0 0.0 0.00 0.00 0.00 41 1009.8
20260831211505 88 255 0.0 0.0 0.00 0.00 0.00 40 1010.0
20260831210111 87 127 0.0 0.0 0.00 0.00 0.00 41 1010.1
20260831204547 87 159 0.0 0.0 0.00 0.00 0.00 39 1010.3
20260831203046 87 134 0.0 0.0 0.00 0.00 0.00 39 1010.3
20260831201530 88 101 0.0 0.0 0.00 0.00 0.00 37 1010.4
20260831200032 87 160 0.0 0.0 0.00 0.00 0.00 38 1010.4
20260831194511 88 106 0.0 0.0 0.00 0.00 0.00 36 1010.5
20260831193010 89 211 0.0 0.0 0.00 0.00 0.00 35 1010.8
20260831191549 88 222 0.0 0.0 0.00 0.00 0.00 35 1011.0
20260831184528 86 312 0.0 0.0 0.00 0.00 0.00 36 1011.0
20260831183027 86 212 0.0 0.0 0.00 0.00 0.00 39 1011.2
20260831181509 86 321 0.0 0.0 0.00 0.00 0.00 41 1011.4
20260831180006 85 221 0.0 0.0 0.00 0.00 0.00 38 1011.5
20260831174546 83 128 0.0 0.0 0.00 0.00 0.00 40 1011.7
20260831173044 83 251 0.0 0.0 0.00 0.00 0.00 43 1012.1
20260831171525 82 221 0.0 0.0 0.00 0.00 0.00 44 1012.0
20260831170026 77 345 0.0 0.0 0.00 0.00 0.00 50 1012.0
20260831164509 75 309 0.0 0.0 0.00 0.00 0.00 53 1011.9
20260831163002 74 297 0.0 0.0 0.00 0.00 0.00 55 1011.8
20260831161544 73 303 0.0 0.0 0.00 0.00 0.00 55 1011.9
20260831160048 73 299 0.0 0.0 0.00 0.00 0.00 57 1012.0
20260831154526 72 304 0.0 0.0 0.00 0.00 0.00 59 1011.9
20260831153027 71 24 0.0 0.0 0.00 0.00 0.00 61 1012.0
20260831151507 69 64 0.0 0.0 0.00 0.00 0.00 63 1011.9
20260831150005 68 306 0.0 0.0 0.00 0.00 0.00 68 1011.7
20260831144547 66 307 0.0 0.0 0.00 0.00 0.00 76 1011.8
20260831143106 64 282 0.0 0.0 0.00 0.00 0.00 79 1011.9
20260831141544 63 302 0.0 0.0 0.00 0.00 0.00 81 1011.7
20260831140038 62 301 0.0 0.0 0.00 0.00 0.00 82 1011.7
20260831134506 62 295 0.0 0.0 0.00 0.00 0.00 82 1011.4
20260831133007 62 306 0.0 0.0 0.00 0.00 0.00 82 1011.2
20260831131547 61 298 0.0 0.0 0.00 0.00 0.00 83 1011.1
20260831130053 60 291 0.0 0.0 0.00 0.00 0.00 84 1011.1
20260831124526 59 314 0.0 0.0 0.00 0.00 0.00 84 1010.9
20260831123023 59 304 0.0 0.0 0.00 0.00 0.00 84 1010.4
20260831121505 60 304 0.0 0.0 0.00 0.00 0.00 84 1010.1
20260831120004 60 304 0.0 0.0 0.00 0.00 0.00 84 1010.3
20260831114544 60 304 0.0 0.0 0.00 0.00 0.00 84 1010.0
20260831113042 60 296 0.0 0.0 0.00 0.00 0.00 84 1009.7
20260831111529 61 321 0.0 0.0 0.00 0.00 0.00 83 1009.8
20260831110025 62 298 0.0 0.0 0.00 0.00 0.00 82 1009.8
20260831104525 63 317 0.0 0.0 0.00 0.00 0.00 83 1009.8
20260831103021 63 281 0.0 0.0 0.00 0.00 0.00 82 1009.6
20260831101524 63 290 0.0 0.0 0.00 0.00 0.00 82 1009.6
20260831100016 63 319 0.0 0.0 0.00 0.00 0.00 81 1009.1
20260831094512 64 308 0.0 1.0 0.00 0.00 0.00 81 1008.8
20260831093013 64 314 0.0 0.0 0.00 0.00 0.00 82 1008.4
20260831091549 65 297 0.0 0.0 0.00 0.00 0.00 82 1008.1
20260831084527 66 310 0.0 0.0 0.00 0.00 0.00 80 1007.7
20260831083027 66 301 0.0 0.0 0.00 0.00 0.00 80 1007.7
20260831081506 67 311 0.0 0.0 0.00 0.00 0.00 83 1007.5
20260831080002 67 305 0.0 0.0 0.00 0.00 0.00 83 1007.1
20260831074542 68 309 0.0 0.0 0.00 0.00 0.00 82 1006.7
20260831073040 69 329 0.0 0.0 0.00 0.00 0.00 81 1006.8
20260831071520 69 307 0.0 2.0 0.00 0.00 0.00 80 1006.8
20260831070026 70 303 0.0 9.0 0.00 0.00 0.00 79 1006.5
20260831064557 71 304 1.0 15.0 0.00 0.00 0.00 80 1006.4
20260831063051 73 306 0.0 8.0 0.00 0.00 0.00 82 1006.2
20260831061530 73 314 0.0 3.0 0.00 0.00 0.00 79 1005.9
20260831060027 74 271 0.0 0.0 0.00 0.00 0.00 68 1005.5
20260831054510 75 284 0.0 0.0 0.00 0.00 0.00 64 1005.0
20260831053101 76 284 0.0 0.0 0.00 0.00 0.00 60 1004.8
20260831051541 77 281 0.0 0.0 0.00 0.00 0.00 56 1004.6
20260831050035 79 261 0.0 3.0 0.00 0.00 0.00 53 1004.3
20260831044517 80 259 0.0 1.0 0.00 0.00 0.00 51 1004.2
20260831043016 80 245 0.0 1.0 0.00 0.00 0.00 51 1003.7
20260831041602 81 275 0.0 0.0 0.00 0.00 0.00 52 1003.5
20260831040058 80 148 0.0 0.0 0.00 0.00 0.00 52 1003.3
20260831034544 79 149 0.0 0.0 0.00 0.00 0.00 55 1003.4
20260831033040 78 78 0.0 0.0 0.00 0.00 0.00 60 1003.2
20260831031528 78 78 0.0 0.0 0.00 0.00 0.00 62 1003.2
20260831030024 79 79 0.0 0.0 0.00 0.00 0.00 60 1003.2
20260831024505 80 105 0.0 0.0 0.00 0.00 0.00 58 1003.0
20260831023004 81 124 0.0 0.0 0.00 0.00 0.00 57 1002.9
20260831021545 82 126 0.0 0.0 0.00 0.00 0.00 55 1002.7
20260831020046 82 135 0.0 0.0 0.00 0.00 0.00 54 1002.6